Location: Hysolar-Haus
(48.7436°N, 9.0965°E)
Time: 06:29:30
(UTC+00:00)

Explorer 7 - Pass Details

Date: 19 November 2019
Orbit: 485 x 679 km, 50.3° (Epoch: 15 December)

Event Time Altitude Azimuth Distance (km) Brightness Sun altitude
Exits shadow 05:49:18 - 271° (W) 1,867 8.9 -8.1°
Reaches altitude 10° 05:49:33 10° 269° (W) 1,790 8.8 -8.0°
Maximum altitude 05:52:33 20° 221° (SW) 1,232 8.4 -7.6°
Drops below altitude 10° 05:55:27 10° 172° (S) 1,712 9.8 -7.1°
Sets 05:57:59 0° 155° (SSE) 2,569 11.0 -6.7°
